Flag for Cameroon Weather past 2 weeks in Douala, Cameroon

Now
79 °F

Passing clouds.


Feels Like: 82 °F
Forecast: 76 / 83 °F
Wind: 5 mph from West

Location: Douala Obs.

Current Time: Aug 27, 2014 at 8:28:36 PM

Latest Report: Aug 27, 2014 at 8:00 PM


Visibility: N/A

Pressure: 29.89 "Hg

Humidity: 89%

Dew point: 75 °F

Location of DoualaLocation

Historic Weather in Douala — Graph

°F

Douala temperature yesterday

Maximum temperature yesterday: 84 °F (at 2:00 PM)
Minimum temperature yesterday: 73 °F (at 1:00 AM)
Average temperature yesterday: 77 °F

Past Weeks' High & Low Weather Summary

 TemperatureHumidityPressure
High86 °F (Aug 24, 2:00 PM)100% (Aug 12, 9:00 PM)30.04 "Hg (Aug 12, 9:00 PM)
Low72 °F (Aug 25, 2:00 AM)66% (Aug 26, 2:00 PM)29.83 "Hg (Aug 24, 4:00 PM)
Average77 °F91%29.93 "Hg
* Reported Aug 12 7:00 PM — Aug 27 7:00 PM, Douala, Weather by CustomWeather, © 2014

Note: Actual official high and low records may vary slightly from our data, if they occured in-between our weather recording intervals... More about our weather records

Advertising

Douala weather history for previous 24 hours

 ConditionsComfort  
Time TempWeatherWind HumidityBarometerVisibility
7:00 PM
Aug 27
79 °FPassing clouds.7 mph84%29.86 "HgN/A
6:00 PM81 °FPartly sunny.7 mph79%29.86 "HgN/A
5:00 PM81 °FPartly sunny.9 mph79%29.83 "HgN/A
4:00 PM82 °FPartly sunny.9 mph74%29.86 "HgN/A
3:00 PM82 °FPartly sunny.9 mph79%29.86 "HgN/A
2:00 PM82 °FPartly sunny.7 mph74%29.89 "HgN/A
1:00 PM82 °FPartly sunny.No wind79%29.95 "HgN/A
12:00 PM82 °FPartly sunny.No wind74%29.98 "HgN/A
11:00 AM79 °FPartly sunny.5 mph89%29.98 "HgN/A
10:00 AM79 °FMostly cloudy.No wind89%30.01 "HgN/A
9:00 AM77 °FPartly sunny.No wind94%30.01 "HgN/A
8:00 AM75 °FPartly sunny.No wind100%29.98 "Hg5 mi
7:00 AM75 °FPartly sunny.No wind94%29.95 "Hg4 mi
6:00 AM75 °FPassing clouds.No wind94%29.95 "Hg4 mi
5:00 AM75 °FPassing clouds.No wind94%29.95 "Hg4 mi
4:00 AM75 °FPartly cloudy.No wind94%29.95 "Hg2 mi
3:00 AM75 °FPassing clouds.No wind94%29.95 "Hg5 mi
2:00 AM75 °FPassing clouds.No wind94%29.95 "HgN/A
1:00 AM75 °FPassing clouds.No wind94%29.98 "HgN/A
12:00 AM75 °FPassing clouds.No wind100%29.98 "HgN/A
11:00 PM
Aug 26
75 °FPassing clouds.No wind100%29.98 "HgN/A
10:00 PM75 °FPassing clouds.No wind94%29.98 "HgN/A
9:00 PM77 °FPassing clouds.No wind89%29.95 "HgN/A
8:00 PM77 °FPassing clouds.No wind89%29.92 "HgN/A
Weather by CustomWeather, © 2014

See weather overviewHow to use our weather pages